Temperature
11 12 12 13 13 14 15 17 20 21 22 24 24 25 24 24 24 21 20 20 20 19 19 18 18 18 17 17 17 17 17 17 16 16 16 16 16 16 16 16 16 16 16 16 16 16 16 16 16
11 11 12 13 13 13 15 18 19 21 22 23 23 24 24 23 22 20 20 19 19 19 19 18 18 18 17 17 17 17 17 16 16 16 16 16 16 16 16 16 16 16 16 16 16 16 16 16 16
11 11 12 12 12 14 16 19 20 21 22 22 22 23 23 22 21 20 19 19 18 18 18 18 18 17 17 17 17 16 16 16 16 16 16 16 16 16 16 16 16 16 16 16 16 16 16 16 16
10 11 11 12 13 15 17 18 19 20 20 21 21 21 21 20 20 19 19 18 18 17 17 17 17 17 17 17 16 16 16 16 16 16 16 15 15 15 15 16 16 16 16 16 16 16 16 16 16
10 11 11 11 13 15 17 18 19 18 19 20 20 19 19 19 19 19 18 18 17 17 17 17 17 17 16 16 16 16 16 16 16 16 15 15 15 16 16 16 16 16 16 16 16 16 16 16 16
10 11 10 11 13 15 17 17 18 18 18 18 18 18 17 18 18 18 18 17 17 17 16 16 17 16 16 16 16 16 16 16 16 15 15 15 15 16 15 15 16 16 16 16 16 16 16 16 16
10 10 10 12 13 14 16 16 17 17 17 17 17 17 16 17 17 17 17 17 17 16 16 16 16 16 16 16 16 16 16 16 15 15 15 15 16 15 15 15 16 16 16 16 16 16 16 16 16
9 10 10 11 12 14 15 16 16 16 16 16 16 16 16 16 16 16 16 16 16 16 16 16 16 16 16 15 15 15 15 15 15 15 15 16 15 15 15 15 16 16 16 16 16 16 16 16 16
9 9 9 11 12 13 15 15 15 15 15 15 15 15 15 15 15 16 16 16 16 15 15 15 15 15 15 15 15 15 15 15 15 15 15 15 15 15 15 15 15 15 15 16 16 16 16 16 16
9 8 10 12 12 13 13 13 13 13 13 14 14 15 15 15 15 15 15 15 15 15 15 15 15 15 15 15 15 15 15 15 15 15 15 15 15 15 15 15 15 15 15 15 15 16 15 15 15
10 10 11 12 12 12 13 12 12 13 12 13 13 14 14 14 14 14 14 14 15 15 15 15 15 14 14 15 15 15 15 15 15 15 15 15 14 14 15 15 15 15 15 15 15 15 15 15 15
11 11 11 11 12 12 12 12 12 12 12 13 13 13 13 13 14 14 14 14 14 14 15 15 14 14 14 14 15 15 14 14 14 14 14 14 14 14 15 15 15 15 15 15 15 15 15 14 14
10 11 11 11 11 11 11 11 11 11 12 12 13 13 13 13 13 14 14 14 14 14 14 14 14 14 14 14 14 14 14 14 14 14 14 14 14 14 15 15 15 15 15 15 15 15 14 14 14
11 11 11 11 11 11 11 11 11 12 12 12 12 12 13 13 13 13 13 14 14 14 13 14 14 14 14 14 14 14 14 14 14 14 14 14 14 14 14 14 15 14 15 15 14 14 14 14 14
10 10 10 11 11 11 11 11 11 12 12 12 12 12 13 13 13 13 13 13 13 13 13 13 13 13 13 13 14 14 14 14 14 14 14 14 14 14 14 14 14 14 14 14 14 14 14 14 14
10 9 9 11 11 11 11 10 12 12 12 12 12 12 13 13 12 13 13 13 13 13 13 13 13 13 13 13 14 14 14 14 14 14 14 14 14 14 14 14 14 14 14 14 14 14 14 14 14
9 8 9 10 11 11 10 10 12 12 12 12 12 12 13 13 12 12 12 12 13 13 13 13 13 13 13 13 13 14 14 14 14 14 14 14 14 14 14 14 14 14 14 14 14 14 14 14 14
8 9 9 10 11 11 10 10 11 12 12 12 12 12 12 12 12 12 12 12 12 12 12 13 13 12 13 13 13 13 13 13 13 13 14 14 14 14 14 14 14 14 14 14 14 14 14 14 14
10 9 9 10 11 10 10 10 11 12 12 12 12 12 12 12 12 12 12 12 12 12 12 12 12 12 12 13 13 13 13 13 13 13 13 14 14 14 14 14 14 14 14 14 14 14 14 14 13
9 9 8 10 11 10 10 10 11 11 12 12 12 12 12 12 12 11 11 11 12 11 12 12 12 12 12 13 13 13 13 13 13 13 13 13 14 14 14 14 14 14 14 14 14 14 13 13 13
9 8 8 9 9 10 10 10 11 11 12 12 12 12 12 12 12 11 11 11 11 11 11 12 12 12 12 12 13 12 12 13 13 13 13 13 14 14 14 14 14 14 14 14 14 14 13 13 13
8 10 9 9 8 8 9 8 10 11 11 11 11 11 11 11 11 11 11 11 11 11 11 11 12 12 12 12 12 12 12 12 13 13 13 13 13 14 14 14 14 14 14 14 14 14 13 13 13
9 10 9 9 8 8 9 8 9 11 11 11 11 11 11 11 11 11 11 11 11 11 11 11 11 11 12 12 12 12 12 12 13 13 13 13 13 13 13 13 13 13 14 14 14 13 13 13 13
10 9 9 9 8 8 9 9 9 9 10 10 10 10 10 10 10 10 10 11 11 11 11 11 11 11 11 11 12 12 12 12 12 12 13 13 13 13 13 13 13 13 13 13 13 13 13 13 13
9 8 7 8 8 8 10 9 8 9 10 10 10 10 10 10 10 10 10 10 10 10 11 11 11 11 11 11 11 12 12 12 12 12 12 12 12 12 13 13 13 13 13 13 13 13 13 13 13
8 8 7 7 8 9 10 9 9 10 10 10 10 9 9 9 9 9 9 10 10 10 10 10 10 11 11 11 11 11 11 11 11 12 12 12 12 13 12 12 12 13 12 12 12 12 12 12 12
8 8 8 7 8 8 9 9 9 10 9 9 9 9 9 8 8 9 9 9 9 10 10 10 10 10 10 10 11 11 11 11 11 11 12 12 12 12 12 12 12 12 12 12 12 12 12 12 12
8 8 7 7 7 8 9 9 8 8 8 8 8 8 8 8 8 8 8 8 9 9 9 9 10 10 10 10 10 11 11 11 11 11 11 12 12 12 12 12 12 12 12 12 11 12 12 11 12
8 8 7 7 7 7 8 8 8 8 8 7 7 7 7 7 7 7 8 8 8 8 9 9 9 9 9 10 10 10 10 10 11 11 11 11 11 12 12 11 11 11 11 11 11 11 11 11 11
8 8 7 6 7 8 7 7 9 8 8 8 7 7 7 7 7 7 7 7 7 8 8 8 8 9 9 9 10 10 10 10 10 10 10 11 11 11 11 11 11 11 11 11 11 11 11 10 10
Wind_Speed
12 11 6 2 5 8 19 17 15 14 15 12 8 8 8 5 2 4 5 9 16 20 22 24 23 22 21 21 21 20 20 20 19 19 19 19 19 18 18 18 18 18 17 18 18 17 18 18 17
11 7 4 4 8 14 16 18 19 17 14 9 8 7 6 2 3 7 5 10 16 19 20 22 23 22 21 21 21 21 21 20 20 20 20 19 19 19 18 18 18 18 17 17 17 17 17 17 16
10 8 4 5 11 17 15 12 13 12 10 9 7 5 5 2 2 5 8 11 15 16 18 21 23 22 21 21 21 21 21 21 20 20 20 20 20 19 19 19 18 18 18 17 17 17 16 16 15
4 4 4 9 18 18 16 12 10 10 9 8 6 3 3 3 2 4 10 12 13 15 17 21 22 21 21 21 21 21 21 21 20 20 20 20 20 20 19 19 19 18 18 17 17 16 15 15 13
3 4 8 12 19 18 16 14 12 10 9 8 6 4 4 3 4 6 8 11 11 13 15 21 22 21 21 21 20 21 21 21 21 20 20 20 20 20 19 20 19 18 18 17 16 15 14 13 12
3 4 8 13 17 17 15 12 12 11 9 7 6 5 4 2 3 4 5 9 11 12 14 19 21 21 20 20 20 20 20 20 20 20 20 20 20 21 20 20 19 18 17 16 15 15 14 12 11
4 5 11 14 14 14 13 10 10 9 10 8 5 5 4 1 1 2 2 6 9 11 13 14 17 19 19 20 19 19 20 20 20 20 20 20 21 21 21 19 18 18 17 16 15 14 13 12 10
3 4 10 12 14 14 10 10 8 8 9 7 5 5 5 2 0 1 1 3 8 11 12 12 14 16 16 16 18 18 18 19 19 19 20 21 21 21 20 19 18 17 16 16 15 14 12 11 8
3 5 10 11 10 10 7 8 7 6 7 8 6 5 5 4 2 1 1 2 6 9 10 12 12 13 14 15 17 18 18 19 19 18 21 21 18 18 18 18 18 17 16 15 14 13 12 10 8
5 7 12 9 9 8 8 9 7 6 8 8 8 6 4 6 5 5 4 4 7 8 9 11 12 11 13 13 14 15 16 16 17 17 19 17 17 16 16 19 18 17 16 15 13 12 12 9 8
6 9 10 11 10 9 8 8 9 9 10 9 8 6 5 6 7 7 5 5 7 8 9 9 10 11 10 9 11 10 12 14 15 18 18 16 15 15 15 14 14 15 14 12 12 11 10 10 9
9 11 12 11 10 8 8 7 9 11 11 9 8 8 7 6 7 7 7 5 4 6 7 8 8 9 9 10 9 8 8 9 9 16 18 13 9 9 11 10 12 12 11 11 11 9 10 9 9
10 10 11 11 10 9 9 9 10 13 11 10 8 8 8 8 7 5 5 5 5 5 4 6 7 8 7 7 8 9 8 8 10 14 15 14 8 8 8 9 11 12 11 11 9 8 7 6 7
7 10 11 11 9 9 10 11 10 12 10 9 8 7 7 7 7 6 4 4 5 6 4 2 3 6 6 7 6 7 8 8 10 10 13 15 11 8 8 7 8 9 10 11 9 7 5 4 4
8 9 10 10 10 8 7 10 12 11 9 8 8 8 7 6 6 7 5 4 5 6 6 4 2 3 5 6 7 6 7 8 7 9 14 15 13 11 8 7 6 8 12 11 8 6 5 3 2
7 6 7 7 7 6 5 9 8 6 7 8 7 7 7 6 6 5 4 4 5 5 6 6 5 4 5 4 6 5 7 7 6 8 11 13 14 13 9 6 6 9 10 7 4 4 4 3 3
4 5 6 5 3 4 5 8 9 5 5 7 7 7 6 5 4 4 3 3 4 5 6 7 7 5 6 5 5 6 6 7 7 7 8 11 13 14 9 6 6 10 6 4 5 4 4 4 4
4 5 5 4 3 6 7 9 9 7 6 6 5 4 4 4 3 4 3 3 3 4 6 7 8 7 6 5 4 4 5 6 6 6 8 11 12 14 10 7 7 8 6 5 5 5 4 4 4
7 6 7 7 5 5 7 8 9 7 5 5 4 3 3 3 3 2 3 4 4 4 5 6 7 7 6 5 5 5 6 7 6 6 8 10 11 12 9 7 7 6 6 6 7 5 5 3 3
5 4 6 5 4 5 6 7 7 5 4 3 3 2 3 3 3 3 3 4 3 4 5 6 7 7 7 6 5 5 5 6 6 5 7 9 10 11 10 8 7 7 6 7 6 6 4 3 4
4 3 4 6 7 5 5 5 3 2 2 2 2 2 2 3 4 5 4 4 4 4 5 5 6 7 7 6 5 4 3 4 5 6 6 6 9 11 10 9 8 7 7 7 7 7 6 5 4
4 3 4 5 4 3 3 2 2 0 1 1 1 2 2 1 2 4 4 5 5 4 4 5 6 7 7 7 6 7 5 5 6 5 5 6 7 9 10 10 8 8 7 7 7 7 5 6 5
3 5 6 6 5 4 3 1 2 3 4 4 4 3 3 2 1 3 3 4 4 4 3 4 6 6 6 6 7 7 6 5 5 5 7 7 6 8 9 9 8 8 7 7 8 7 7 6 6
4 5 7 5 3 2 2 1 2 4 6 6 6 5 5 4 4 3 2 3 3 3 3 4 5 5 6 6 7 7 8 8 8 7 8 7 6 6 8 8 8 8 7 7 8 8 8 7 6
3 3 2 1 1 1 2 2 2 6 7 7 7 6 5 5 4 3 2 3 2 2 3 3 4 5 6 6 6 7 8 9 9 9 8 8 7 7 9 8 7 7 7 7 6 7 8 8 7
4 2 2 2 2 1 2 2 2 6 7 8 8 8 7 6 5 4 3 3 2 1 2 2 3 4 5 5 5 6 6 6 6 7 7 8 7 8 9 9 8 8 8 7 6 5 6 6 7
3 2 2 2 3 1 0 2 3 8 9 10 11 10 10 9 7 6 6 5 4 2 1 1 2 3 3 3 4 5 6 6 6 6 5 5 6 7 9 9 9 8 8 8 8 6 6 6 6
3 3 2 2 2 1 0 2 3 7 8 9 10 10 10 10 9 7 6 6 5 4 2 0 1 1 2 2 2 3 4 4 5 4 5 5 6 7 9 9 9 9 9 8 7 6 6 6 6
2 2 2 3 2 1 1 2 4 5 7 8 9 9 10 9 9 8 7 7 6 6 5 3 2 2 1 0 1 1 2 3 3 4 4 4 4 6 8 9 9 9 9 9 8 8 8 8 7
2 2 2 2 3 2 0 0 4 5 6 7 8 9 9 9 9 8 8 8 8 7 6 6 5 4 3 2 1 1 0 2 3 3 3 3 4 5 7 8 8 9 9 9 9 9 9 9 9
Wind_Direction
296 276 258 242 227 227 236 234 243 246 244 247 261 265 261 255 263 121 139 135 129 139 147 153 154 155 155 154 153 153 152 151 151 149 146 143 140 137 134 132 128 124 119 115 110 106 102 100 98
292 280 252 227 224 226 234 229 238 246 253 264 271 277 270 269 68 106 125 123 131 138 145 154 153 155 156 155 155 155 155 155 154 151 149 147 144 141 137 133 129 125 120 116 112 108 104 103 102
273 265 238 224 227 227 232 229 234 247 262 267 264 272 271 261 91 112 123 126 133 139 146 150 153 155 156 156 156 156 155 155 155 153 151 149 147 144 139 133 129 125 120 116 115 111 108 106 105
263 231 236 236 236 236 248 261 267 262 266 268 266 278 286 20 44 108 125 128 136 142 145 149 153 156 157 157 156 157 157 156 156 154 153 152 149 145 140 132 127 124 121 119 117 115 111 110 109
250 240 231 237 243 247 252 263 274 273 262 263 263 261 285 351 73 105 128 131 140 143 143 151 154 156 158 158 157 157 157 158 157 156 156 154 150 146 139 132 129 127 125 123 121 119 116 115 114
241 235 235 238 243 248 249 255 270 274 266 262 258 255 262 3 49 113 135 141 142 139 143 153 155 155 158 160 159 159 158 158 157 157 157 153 149 144 138 135 133 132 130 128 125 123 120 118 117
242 246 249 250 252 252 254 264 265 272 261 258 264 258 245 270 36 84 142 149 145 142 144 151 157 156 158 160 161 160 159 158 158 158 155 151 148 143 140 138 138 136 134 131 128 126 124 122 120
250 266 258 252 251 254 263 270 272 279 276 272 253 229 225 213 282 25 69 142 147 146 148 155 157 158 159 159 159 158 158 158 158 155 148 146 145 142 141 141 141 139 137 134 131 130 127 127 128
235 242 251 253 254 265 278 282 286 299 289 280 268 265 238 207 188 133 98 136 155 154 153 160 164 161 159 162 162 159 158 157 154 150 145 145 145 143 144 143 142 140 139 137 137 136 134 136 145
203 238 250 263 275 285 288 291 295 299 288 280 274 270 216 209 198 185 191 181 174 170 165 164 167 168 164 162 160 163 164 162 160 156 155 157 154 152 147 143 142 141 141 141 143 145 147 154 170
217 244 264 272 278 286 286 290 295 271 263 262 263 265 239 213 207 196 197 201 190 177 173 162 170 171 167 157 160 165 166 170 169 163 169 167 154 145 139 143 142 143 145 148 152 160 179 187 183
243 255 262 268 273 275 279 282 280 268 263 273 273 267 249 229 213 205 197 198 201 191 180 169 163 173 171 162 164 162 162 171 166 168 172 164 150 145 149 153 157 161 167 163 169 191 201 191 180
254 264 269 271 275 266 264 264 271 271 272 270 263 258 240 237 223 218 212 201 193 187 188 190 171 169 174 166 168 166 162 165 163 166 170 160 151 155 156 161 164 173 171 167 185 202 189 181 184
273 278 278 276 271 266 258 262 261 261 263 258 250 251 244 235 226 220 215 216 201 189 179 202 204 175 171 171 171 167 164 163 160 165 168 163 161 162 161 160 165 174 167 172 188 192 173 174 174
270 273 272 261 252 250 257 259 247 252 246 245 246 248 233 233 239 226 218 218 201 187 177 184 218 189 169 172 170 168 160 161 158 165 171 170 168 165 161 160 164 168 168 175 183 180 164 159 146
262 259 261 251 235 235 232 258 265 249 241 240 239 240 226 225 231 226 225 216 192 174 171 185 192 197 178 175 169 163 162 159 157 167 171 173 168 165 161 158 164 169 168 166 167 158 152 147 147
238 253 262 276 247 254 239 266 276 259 251 252 245 233 222 216 215 210 222 215 189 182 177 181 172 182 190 180 171 166 162 164 164 170 174 174 170 168 164 163 167 166 158 158 164 158 158 160 171
284 289 292 290 282 267 254 266 278 269 261 255 253 235 226 210 221 211 201 189 195 194 183 181 169 179 183 168 160 160 171 170 166 172 179 175 173 170 166 164 168 162 155 159 158 162 163 164 166
285 290 294 295 302 295 276 272 279 275 265 258 260 237 219 211 218 217 195 188 194 192 190 189 175 181 174 170 165 165 184 176 169 176 180 174 174 172 168 165 166 160 161 166 165 166 167 171 154
298 308 299 299 313 308 288 279 274 268 254 244 242 248 222 209 203 207 198 191 188 198 191 187 181 180 174 177 170 168 177 177 171 173 178 178 176 174 170 165 168 165 165 171 175 167 165 174 164
306 307 307 310 315 280 270 284 258 227 228 234 239 254 246 220 195 196 189 179 173 192 194 193 186 188 181 175 163 156 168 166 174 179 181 184 181 176 171 170 168 170 170 176 178 173 172 178 181
300 314 303 301 311 302 310 312 341 187 180 262 322 345 315 257 193 180 176 171 174 184 187 199 199 193 190 177 169 168 183 191 188 184 183 185 189 180 174 171 170 174 176 179 182 175 174 174 184
298 306 292 280 284 290 266 253 319 25 28 19 23 8 356 3 95 148 162 169 167 162 177 194 192 190 193 180 175 179 191 202 186 181 179 184 193 183 175 174 172 175 179 183 182 177 179 186 189
305 297 279 256 252 280 270 195 3 19 18 19 22 14 10 26 58 78 102 129 137 148 161 179 175 190 188 180 184 190 197 198 185 184 186 185 190 187 182 181 179 177 180 186 186 183 183 189 192
337 332 330 301 209 246 37 77 30 25 31 26 23 21 21 37 47 63 70 93 114 144 150 160 172 190 185 181 191 194 201 204 197 193 193 189 191 193 188 185 185 181 184 186 182 184 184 184 186
323 329 349 327 334 2 17 56 56 40 36 30 29 34 29 28 36 47 49 70 89 105 123 137 208 202 189 188 195 200 202 208 207 204 202 197 197 196 187 185 186 185 185 184 181 183 183 181 186
327 355 315 296 294 304 146 128 86 35 39 34 27 28 29 24 26 30 31 32 25 24 91 153 218 198 187 191 199 202 200 203 206 203 204 203 196 192 185 184 185 185 184 182 178 185 184 181 182
319 321 323 335 338 344 66 74 25 13 22 30 25 21 20 19 22 24 26 25 17 11 8 50 235 217 189 195 198 209 202 201 195 197 204 205 194 188 181 184 185 183 180 180 180 177 177 175 177
353 346 325 305 313 348 0 32 39 42 33 29 24 18 16 16 16 17 21 22 19 17 14 22 12 359 25 229 202 201 195 187 177 186 196 201 199 191 184 185 186 183 181 179 180 180 175 175 176
339 341 343 345 330 329 89 1 50 58 51 36 27 19 17 18 16 16 21 21 18 16 14 17 12 13 6 357 352 315 330 184 182 189 196 192 192 192 191 183 184 184 182 180 182 181 179 178 181
Height
1495 1497 1500 1502 1503 1498 1487 1475 1470 1469 1466 1465 1466 1466 1466 1469 1472 1481 1480 1479 1479 1480 1484 1489 1493 1497 1501 1504 1507 1511 1514 1517 1520 1522 1525 1527 1530 1532 1534 1536 1538 1540 1542 1543 1544 1546 1547 1548 1549
1494 1497 1500 1499 1497 1492 1479 1471 1470 1466 1466 1465 1465 1466 1466 1469 1472 1476 1478 1479 1479 1481 1484 1488 1492 1497 1500 1504 1507 1510 1514 1517 1520 1523 1525 1528 1531 1533 1535 1537 1539 1541 1543 1545 1546 1548 1549 1550 1552
1493 1495 1497 1494 1488 1480 1472 1464 1465 1464 1465 1465 1465 1466 1468 1471 1473 1474 1477 1479 1480 1481 1485 1488 1492 1496 1500 1503 1507 1510 1514 1517 1520 1523 1526 1528 1531 1534 1536 1538 1540 1542 1544 1546 1548 1549 1551 1552 1553
1494 1495 1494 1490 1480 1472 1469 1466 1465 1464 1465 1465 1466 1467 1469 1472 1472 1474 1476 1478 1481 1482 1485 1488 1492 1496 1499 1503 1506 1510 1513 1517 1520 1523 1526 1529 1532 1534 1537 1539 1541 1544 1545 1547 1549 1551 1552 1554 1555
1493 1493 1491 1485 1477 1471 1468 1467 1466 1466 1466 1466 1467 1468 1470 1472 1472 1474 1475 1477 1480 1482 1485 1488 1492 1495 1499 1503 1506 1509 1513 1516 1520 1523 1526 1529 1532 1535 1537 1540 1542 1544 1546 1548 1550 1552 1554 1555 1557
1492 1490 1488 1482 1475 1469 1466 1467 1466 1466 1466 1466 1468 1468 1470 1472 1472 1474 1476 1478 1480 1482 1484 1488 1491 1495 1499 1502 1506 1509 1512 1516 1519 1523 1526 1529 1532 1535 1538 1541 1543 1545 1547 1549 1551 1553 1555 1557 1558
1491 1489 1484 1477 1473 1469 1466 1466 1465 1466 1466 1467 1468 1469 1470 1471 1471 1473 1475 1478 1479 1481 1484 1487 1490 1495 1498 1502 1505 1508 1512 1516 1519 1523 1526 1529 1532 1535 1538 1541 1543 1546 1548 1550 1552 1554 1556 1558 1559
1488 1488 1481 1476 1472 1468 1466 1465 1465 1466 1465 1467 1467 1467 1468 1470 1470 1472 1474 1476 1478 1480 1483 1486 1489 1493 1497 1501 1505 1508 1511 1515 1518 1522 1525 1529 1532 1535 1538 1541 1544 1546 1549 1551 1553 1555 1557 1559 1560
1487 1489 1481 1475 1471 1467 1466 1465 1465 1466 1465 1465 1465 1466 1466 1468 1469 1471 1473 1475 1477 1479 1482 1486 1489 1492 1495 1499 1503 1507 1510 1514 1518 1521 1525 1528 1532 1535 1538 1541 1543 1546 1549 1551 1553 1556 1557 1559 1561
1484 1484 1476 1472 1470 1468 1466 1466 1466 1467 1466 1465 1465 1464 1465 1466 1468 1469 1471 1473 1475 1477 1480 1484 1487 1490 1494 1497 1501 1505 1509 1513 1517 1520 1524 1527 1531 1534 1537 1540 1543 1546 1549 1551 1554 1556 1558 1560 1561
1479 1477 1472 1471 1469 1468 1467 1466 1467 1467 1465 1465 1464 1464 1464 1465 1466 1468 1469 1471 1473 1476 1479 1482 1485 1489 1492 1495 1499 1503 1507 1511 1515 1519 1523 1526 1530 1533 1536 1539 1542 1545 1548 1551 1553 1556 1558 1560 1562
1475 1472 1471 1469 1468 1468 1467 1466 1466 1464 1462 1462 1462 1462 1461 1461 1463 1465 1467 1469 1472 1475 1476 1479 1483 1487 1490 1493 1497 1501 1505 1509 1513 1517 1521 1525 1528 1531 1534 1538 1541 1544 1547 1550 1553 1555 1557 1560 1562
1471 1469 1468 1467 1466 1466 1465 1464 1464 1461 1460 1460 1459 1458 1459 1459 1461 1463 1465 1467 1469 1472 1474 1477 1481 1484 1487 1491 1495 1499 1503 1507 1511 1515 1519 1523 1526 1529 1533 1536 1539 1543 1546 1549 1552 1554 1557 1559 1562
1469 1468 1466 1464 1464 1463 1462 1461 1461 1457 1457 1457 1456 1455 1457 1457 1458 1460 1462 1464 1466 1468 1471 1474 1478 1481 1484 1488 1493 1497 1501 1505 1509 1513 1517 1521 1524 1528 1531 1535 1538 1542 1545 1548 1551 1554 1556 1559 1561
1468 1468 1465 1461 1461 1460 1460 1459 1456 1453 1453 1452 1452 1453 1453 1455 1456 1457 1459 1461 1464 1467 1469 1470 1474 1479 1482 1486 1491 1495 1499 1503 1507 1511 1515 1518 1522 1526 1530 1533 1537 1540 1543 1547 1550 1552 1555 1557 1559
1467 1467 1465 1457 1456 1456 1461 1458 1451 1450 1450 1449 1450 1450 1450 1451 1453 1455 1457 1458 1461 1464 1466 1468 1472 1476 1480 1483 1488 1492 1496 1500 1504 1508 1512 1516 1520 1524 1528 1531 1535 1538 1542 1545 1548 1550 1553 1555 1557
1466 1466 1461 1457 1454 1454 1457 1454 1449 1447 1447 1447 1447 1447 1447 1449 1451 1453 1454 1456 1458 1461 1464 1466 1469 1473 1477 1481 1484 1489 1492 1496 1501 1505 1510 1513 1517 1521 1525 1529 1532 1536 1539 1543 1546 1548 1551 1553 1555
1467 1463 1460 1458 1455 1454 1454 1451 1447 1446 1444 1445 1445 1445 1446 1447 1448 1450 1452 1453 1456 1459 1461 1463 1465 1470 1474 1478 1481 1486 1490 1494 1498 1502 1506 1510 1514 1519 1522 1526 1530 1533 1537 1540 1543 1546 1548 1550 1552
1462 1461 1461 1458 1454 1455 1452 1449 1445 1443 1443 1444 1444 1444 1444 1444 1446 1448 1450 1451 1453 1456 1458 1460 1463 1467 1471 1474 1478 1482 1486 1491 1495 1499 1503 1507 1511 1515 1519 1522 1526 1530 1533 1537 1540 1543 1545 1548 1550
1462 1463 1462 1457 1453 1454 1452 1447 1443 1442 1442 1443 1443 1443 1442 1443 1444 1446 1447 1448 1450 1453 1455 1457 1460 1464 1468 1472 1475 1480 1483 1487 1491 1496 1500 1504 1508 1512 1515 1519 1522 1526 1530 1533 1536 1539 1542 1544 1547
1462 1464 1463 1460 1456 1452 1451 1448 1441 1440 1440 1441 1441 1441 1441 1442 1443 1445 1445 1446 1449 1450 1452 1455 1458 1462 1465 1468 1472 1477 1480 1484 1488 1492 1495 1499 1503 1508 1511 1515 1519 1522 1525 1529 1532 1535 1538 1540 1543
1464 1460 1460 1459 1460 1458 1454 1456 1445 1439 1440 1440 1440 1440 1441 1441 1442 1442 1443 1445 1447 1449 1450 1453 1456 1459 1462 1466 1468 1473 1476 1479 1483 1487 1491 1495 1499 1503 1507 1511 1514 1518 1521 1525 1528 1531 1534 1536 1538
1462 1459 1458 1458 1459 1459 1453 1456 1450 1440 1442 1441 1440 1441 1441 1440 1440 1440 1442 1444 1446 1448 1449 1452 1454 1457 1460 1463 1466 1469 1473 1477 1480 1484 1487 1491 1495 1499 1503 1506 1510 1513 1517 1520 1524 1526 1529 1531 1534
1460 1459 1456 1455 1458 1462 1451 1453 1454 1447 1446 1444 1442 1441 1441 1440 1440 1441 1442 1442 1444 1446 1448 1451 1452 1455 1458 1460 1463 1466 1470 1473 1476 1479 1482 1486 1490 1493 1498 1501 1505 1508 1512 1516 1519 1521 1524 1526 1529
1462 1465 1465 1461 1462 1458 1446 1451 1457 1450 1447 1446 1444 1443 1442 1441 1441 1442 1442 1442 1443 1444 1446 1448 1451 1453 1456 1457 1460 1462 1466 1469 1471 1474 1478 1481 1485 1488 1492 1496 1499 1503 1507 1511 1514 1516 1518 1521 1523
1465 1466 1472 1470 1462 1457 1450 1456 1457 1451 1449 1447 1446 1445 1444 1443 1443 1443 1443 1443 1443 1444 1445 1447 1449 1451 1453 1455 1457 1459 1463 1466 1468 1470 1473 1476 1479 1482 1487 1490 1494 1498 1501 1505 1508 1511 1513 1515 1517
1466 1467 1466 1468 1462 1462 1456 1454 1454 1453 1452 1451 1450 1448 1447 1446 1445 1444 1443 1442 1443 1444 1445 1446 1447 1448 1450 1452 1453 1456 1459 1462 1464 1466 1469 1472 1474 1478 1481 1485 1489 1492 1495 1499 1502 1505 1507 1509 1512
1467 1466 1468 1469 1467 1463 1456 1457 1462 1459 1457 1455 1454 1452 1451 1449 1447 1446 1445 1444 1444 1444 1445 1445 1445 1446 1447 1449 1450 1452 1454 1457 1460 1462 1465 1468 1470 1473 1476 1480 1483 1486 1489 1493 1496 1499 1501 1503 1506
1469 1469 1468 1467 1465 1468 1467 1468 1462 1461 1460 1459 1458 1456 1454 1452 1449 1448 1447 1446 1445 1444 1444 1444 1444 1445 1445 1447 1448 1450 1451 1454 1456 1458 1461 1463 1466 1469 1472 1475 1478 1481 1484 1487 1490 1492 1495 1497 1500
1469 1468 1469 1473 1470 1465 1471 1475 1462 1462 1462 1461 1461 1459 1457 1455 1452 1450 1448 1446 1445 1444 1443 1443 1443 1444 1444 1445 1446 1448 1449 1451 1452 1454 1456 1459 1461 1463 1466 1469 1472 1475 1478 1480 1483 1485 1488 1491 1494